Terminal Aerodrome Forecast
Issued by NWS

Home | Current Version | Previous Version | Text Only | Print | Product List | Glossary On
Versions: 1 2 3 4 5 6 7 8 9 10 11 12 13 14 15 16 17
000
FTUS45 KTFX 242300
TAFGTF
TAF
KGTF 242338Z 2500/2524 24022G35KT P6SM SKC
     FM250300 23012KT P6SM SKC
     FM251900 25020G32KT P6SM SKC=

USA.gov is the U.S. government's official web portal to all federal, state and local government web resources and services.